This is the latest recevied weather packets stored in our database for station/object N2WH. If no packets are shown the sender has not sent any weather packets the latest 10 day(s).
| Time | Temp. | Humidity | Pressure | Rain* | Wind** | Luminosity | Snow |
|---|---|---|---|---|---|---|---|
| 1777657006 | 17.78° C | 42% | 1012.4 hPa | 0 mm | - | 687 W/m² | - |
| 1777656703 | 17.22° C | 45% | 1012.4 hPa | 0 mm | - | 668 W/m² | - |
| 1777656094 | 17.22° C | 43% | 1012.1 hPa | 0 mm | - | 706 W/m² | - |
| 1777655790 | 17.78° C | 42% | 1012.6 hPa | 0 mm | - | 707 W/m² | - |
| 1777655487 | 17.78° C | 41% | 1012.5 hPa | 0 mm | - | 689 W/m² | - |
| 1777655185 | 16.67° C | 46% | 1012.6 hPa | 0 mm | - | 715 W/m² | - |
| 1777654881 | 16.67° C | 48% | 1012.7 hPa | 0 mm | - | 714 W/m² | - |
| 1777654579 | 16.67° C | 42% | 1012.9 hPa | 0 mm | - | 722 W/m² | - |
| 1777654276 | 16.67° C | 44% | 1012.8 hPa | 0 mm | - | 720 W/m² | - |
| 1777653367 | 16.11° C | 45% | 1013 hPa | 0 mm | - | 655 W/m² | - |
| 1777653064 | 16.67° C | 41% | 1013.1 hPa | 0 mm | - | 720 W/m² | - |
| 1777652760 | 15.56° C | 45% | 1013.2 hPa | 0 mm | - | 729 W/m² | - |
| 1777652457 | 15.56° C | 46% | 1013.3 hPa | 0 mm | - | 754 W/m² | - |
| 1777652154 | 15.56° C | 48% | 1013.3 hPa | 0 mm | - | 724 W/m² | - |
| 1777651851 | 15.56° C | 45% | 1013.3 hPa | 0 mm | - | 672 W/m² | - |
| 1777651548 | 15.56° C | 47% | 1013.3 hPa | 0 mm | - | 737 W/m² | - |
| 1777651245 | 15.56° C | 45% | 1013.4 hPa | 0 mm | - | 768 W/m² | - |
| 1777650941 | 15.56° C | 46% | 1013.4 hPa | 0 mm | - | 766 W/m² | - |
| 1777650639 | 15.56° C | 45% | 1013.4 hPa | 0 mm | - | 770 W/m² | - |
| 1777650033 | 15° C | 45% | 1013.8 hPa | 0 mm | - | 806 W/m² | - |
| 1777649730 | 15° C | 47% | 1013.8 hPa | 0 mm | - | 814 W/m² | - |
| 1777649427 | 15° C | 48% | 1013.9 hPa | 0 mm | - | 809 W/m² | - |
| 1777649123 | 14.44° C | 44% | 1013.8 hPa | 0 mm | - | 823 W/m² | - |
| 1777648821 | 15° C | 46% | 1014.1 hPa | 0 mm | - | 802 W/m² | - |
| 1777648512 | 14.44° C | 46% | 1013.9 hPa | 0 mm | - | 804 W/m² | - |
* Rain latest hour (hover to see other rain measurements)
** Current wind speed in m/s (hover to see current wind gust speed)